TimeCST,TemperatureF,Dew PointF,Humidity,Sea Level PressureIn,VisibilityMPH,Wind Direction,Wind SpeedMPH,Gust SpeedMPH,PrecipitationIn,Events,Conditions,WindDirDegrees,DateUTC
12:53 AM,39.0,33.1,79,30.00,10.0,South,4.6,-,N/A,,Mostly Cloudy,180,2013-12-29 06:53:00
1:53 AM,37.9,33.1,83,30.00,10.0,SW,4.6,-,N/A,,Partly Cloudy,220,2013-12-29 07:53:00
2:53 AM,41.0,33.1,73,30.00,10.0,South,4.6,-,N/A,,Overcast,190,2013-12-29 08:53:00
3:53 AM,37.9,32.0,79,30.00,10.0,SSW,5.8,-,N/A,,Partly Cloudy,210,2013-12-29 09:53:00
4:53 AM,39.9,34.0,79,29.99,10.0,Calm,Calm,-,N/A,,Overcast,0,2013-12-29 10:53:00
5:53 AM,37.0,33.1,86,30.01,10.0,Calm,Calm,-,N/A,,Mostly Cloudy,0,2013-12-29 11:53:00
6:53 AM,39.0,34.0,82,30.03,10.0,Calm,Calm,-,N/A,,Overcast,0,2013-12-29 12:53:00
7:53 AM,39.9,36.0,86,30.05,10.0,Calm,Calm,-,N/A,,Overcast,0,2013-12-29 13:53:00
8:53 AM,45.0,37.0,74,30.06,10.0,Calm,Calm,-,N/A,,Overcast,0,2013-12-29 14:53:00
9:53 AM,48.9,36.0,61,30.09,10.0,SW,3.5,-,N/A,,Overcast,230,2013-12-29 15:53:00
10:53 AM,51.1,33.1,50,30.09,10.0,SW,9.2,-,N/A,,Overcast,230,2013-12-29 16:53:00
11:53 AM,54.0,36.0,51,30.06,10.0,Variable,3.5,-,N/A,,Overcast,0,2013-12-29 17:53:00
12:53 PM,55.9,37.0,49,30.04,10.0,South,6.9,-,N/A,,Clear,190,2013-12-29 18:53:00
1:53 PM,57.9,39.9,51,30.02,10.0,West,3.5,-,N/A,,Clear,280,2013-12-29 19:53:00
2:53 PM,57.9,39.9,51,30.01,10.0,Calm,Calm,-,N/A,,Partly Cloudy,0,2013-12-29 20:53:00
3:53 PM,55.9,39.0,53,30.04,10.0,NNW,6.9,-,N/A,,Mostly Cloudy,340,2013-12-29 21:53:00
4:53 PM,55.9,39.0,53,30.06,10.0,WNW,4.6,-,N/A,,Overcast,290,2013-12-29 22:53:00
5:53 PM,55.0,39.0,55,30.07,10.0,Calm,Calm,-,N/A,,Overcast,0,2013-12-29 23:53:00
6:53 PM,48.9,37.0,64,30.10,10.0,NNW,13.8,-,N/A,,Overcast,330,2013-12-30 00:53:00
7:53 PM,44.1,34.0,68,30.14,10.0,NNW,9.2,-,N/A,,Overcast,330,2013-12-30 01:53:00
8:53 PM,43.0,33.1,68,30.16,10.0,NNW,6.9,-,N/A,,Overcast,340,2013-12-30 02:53:00
9:53 PM,41.0,30.9,67,30.19,10.0,NW,9.2,-,N/A,,Overcast,310,2013-12-30 03:53:00
10:53 PM,39.9,30.0,68,30.21,10.0,NW,8.1,-,N/A,,Overcast,320,2013-12-30 04:53:00
11:32 PM,39.2,30.2,70,30.22,10.0,NW,9.2,-,N/A,,Overcast,310,2013-12-30 05:32:00
11:41 PM,39.2,30.2,70,30.21,10.0,NNW,8.1,-,N/A,,Overcast,340,2013-12-30 05:41:00
11:53 PM,39.9,30.0,68,30.21,10.0,NNW,5.8,-,N/A,,Overcast,340,2013-12-30 05:53:00